Wind_Speed
19 19 20 21 21 22 22 22 21 20 19 19 18 17 17 16 16 16 16 15 15 15 15 15 15 15 15 15 16 16 17 18 18 18 19 19 20 20 20 20 20 21 20
20 20 20 21 21 22 22 23 22 22 21 20 19 18 18 17 17 17 16 16 16 16 16 16 16 16 16 16 17 17 18 19 19 19 19 20 20 21 21 21 21 21 21
21 21 21 21 21 21 22 22 23 23 23 22 21 20 19 18 18 18 17 17 17 17 17 17 17 17 18 18 18 18 19 19 20 20 20 20 21 21 21 22 22 22 22
22 22 23 23 23 22 23 23 23 23 23 23 23 22 21 20 19 19 18 18 18 18 18 18 19 19 19 19 19 19 20 20 21 21 21 21 22 22 22 23 23 23 24
23 23 23 23 24 23 23 23 23 24 24 24 24 23 22 21 20 20 19 19 19 19 19 19 19 19 19 19 20 20 20 21 21 22 22 22 23 23 24 24 24 25 25
24 23 24 24 24 24 24 24 24 24 24 24 24 24 23 22 22 21 20 20 20 20 20 20 20 20 20 20 20 21 21 21 22 22 22 23 23 23 24 24 25 25 25
25 24 25 25 25 25 25 25 25 24 24 25 24 24 23 23 22 22 21 21 20 21 21 21 21 21 20 20 20 21 21 22 23 23 23 24 24 25 25 26 26 26 25
26 26 26 26 26 25 25 25 25 25 24 24 24 24 24 23 23 22 22 21 21 21 21 21 21 21 21 21 21 22 22 23 23 24 24 25 25 25 26 26 26 26 26
27 27 28 27 26 26 26 25 25 24 24 24 24 24 24 24 23 23 22 22 22 21 21 21 21 21 21 21 22 22 23 23 23 23 25 26 26 27 27 27 27 27 27
29 28 29 28 28 27 27 26 25 24 24 24 24 24 23 23 24 23 23 23 22 22 21 21 22 22 22 22 22 22 23 23 24 24 25 26 27 28 28 29 28 28 28
31 30 30 30 29 28 28 27 26 25 24 24 24 24 24 23 24 24 23 23 23 23 23 23 23 23 23 23 23 24 24 24 24 24 26 26 26 27 28 28 28 28 29
32 32 31 31 31 30 29 28 28 27 25 25 25 25 24 24 24 24 24 24 24 24 25 24 24 24 25 25 25 26 26 26 26 26 28 28 27 28 28 29 29 29 29
33 33 32 32 31 31 30 30 29 28 27 27 26 26 25 25 24 24 25 25 26 26 27 26 26 27 27 27 27 27 28 28 28 27 28 29 29 29 29 30 30 31 31
33 33 33 33 33 32 31 31 30 29 29 29 28 27 27 26 26 25 25 26 26 27 28 29 29 29 29 29 30 29 30 30 29 29 29 29 30 30 30 30 31 32 33
32 32 33 34 34 33 33 32 31 31 31 30 30 29 29 28 28 27 26 26 27 28 29 30 31 31 31 32 32 32 32 32 31 31 31 31 31 32 32 32 33 34 36
32 32 33 34 35 35 34 34 33 32 32 32 31 31 30 30 30 29 29 28 29 29 30 31 32 33 33 34 34 34 34 34 34 33 33 33 34 34 34 35 35 37 38
34 34 34 35 36 36 35 35 35 34 33 33 33 33 32 32 32 32 31 31 31 31 32 32 33 34 34 35 36 36 36 36 36 35 35 35 36 37 37 37 38 39 40
35 36 36 36 36 37 37 37 36 36 35 34 33 33 33 33 33 34 34 33 33 34 34 34 34 35 35 36 36 37 37 37 37 37 38 38 38 39 40 40 41 42 43
36 38 38 38 38 38 39 38 38 37 36 36 35 34 34 34 35 35 35 35 35 35 35 36 36 36 37 37 37 38 38 39 39 40 40 40 41 41 42 42 44 45 46
38 39 40 40 40 40 41 40 39 38 37 37 36 35 35 35 36 36 37 37 37 37 37 37 37 37 38 38 38 39 39 40 41 42 42 42 43 44 44 45 46 47 48
38 40 42 42 41 42 43 41 40 40 39 38 38 37 36 36 36 37 38 38 37 37 37 37 38 38 38 39 39 40 41 42 43 43 44 44 45 45 47 48 49 50 51
40 41 42 43 43 43 44 43 43 43 41 39 38 38 37 37 37 37 38 38 38 38 38 38 38 38 40 40 41 41 42 42 43 44 45 46 47 48 49 50 52 53 55
43 44 44 44 45 45 45 46 45 43 42 41 40 39 38 38 38 38 38 39 39 39 39 39 39 39 40 41 42 43 44 44 44 44 46 47 48 50 51 53 55 57 59
48 48 47 47 48 48 48 48 47 45 44 43 42 40 39 39 39 39 39 40 40 40 40 40 40 40 40 41 42 44 45 46 46 46 47 48 50 51 53 54 57 59 61
52 52 52 51 51 50 49 49 48 47 46 45 43 42 40 40 39 39 40 40 40 40 40 41 41 41 42 42 43 44 46 47 48 49 49 50 52 53 55 57 59 60 62
54 55 55 55 54 52 51 50 49 48 47 46 45 43 42 40 40 40 40 40 40 40 41 41 42 42 43 44 45 46 47 49 50 51 52 52 53 55 57 59 61 63 64
Wind_Direction
252 252 252 252 252 253 255 256 258 259 261 263 265 266 266 266 265 262 260 259 258 259 260 262 265 267 270 272 274 276 278 280 281 282 283 283 283 282 282 282 283 285 288
252 251 252 252 253 253 254 255 256 257 259 260 261 263 265 265 265 263 261 260 259 260 261 263 265 267 269 271 273 275 277 280 282 283 284 284 284 283 283 282 283 284 286
252 251 252 253 254 255 254 255 255 255 256 257 259 260 262 263 263 262 261 261 261 262 263 264 265 267 270 272 274 276 278 280 282 283 283 284 283 283 283 282 282 283 284
253 254 254 256 256 256 255 255 255 255 255 256 257 258 260 261 262 261 261 261 262 263 263 265 267 269 272 274 276 277 279 281 282 282 282 282 282 282 282 282 282 282 284
254 255 256 257 257 257 257 257 256 256 255 255 256 256 258 259 260 260 260 261 262 263 265 267 270 271 273 274 276 278 279 281 281 281 282 282 281 281 282 282 282 283 284
254 255 256 257 257 258 259 259 259 258 256 256 256 255 256 258 259 259 259 260 261 263 265 267 270 271 273 275 276 277 279 280 281 282 282 283 283 283 283 283 283 284 284
253 254 256 257 257 258 259 260 261 261 259 258 257 256 257 258 259 259 259 259 260 262 264 265 267 269 271 273 275 277 279 281 282 283 284 284 284 284 284 284 283 283 283
251 253 255 257 257 259 260 261 262 263 263 262 260 259 259 260 260 260 260 260 260 261 262 264 267 268 270 272 274 276 279 280 282 284 284 284 284 285 284 283 283 282 283
251 253 255 257 259 261 263 264 265 265 265 265 264 263 263 263 262 262 262 262 261 261 263 265 267 269 271 273 274 277 278 280 283 284 284 283 284 284 283 283 283 283 282
254 254 257 258 260 263 266 267 268 268 268 268 267 267 266 265 265 265 264 264 264 263 263 265 268 270 272 273 275 277 279 281 282 285 284 285 285 284 283 282 282 282 282
255 256 257 260 262 265 267 269 270 271 271 271 270 269 269 268 267 266 266 265 265 264 264 266 268 270 271 273 275 277 279 281 282 285 285 286 286 285 284 283 283 284 284
255 257 258 261 264 266 268 270 271 272 273 272 271 271 271 271 269 269 267 266 266 264 264 265 267 268 270 273 276 277 279 282 282 283 284 285 285 285 283 283 283 284 285
256 258 259 260 263 265 267 269 271 273 274 273 273 272 272 272 271 270 269 267 267 265 264 265 265 267 269 272 275 277 280 282 283 283 285 286 285 285 284 284 284 285 286
257 259 260 261 261 263 266 268 270 272 272 273 273 273 273 272 273 272 272 270 268 267 265 265 266 267 269 272 274 277 280 282 283 285 286 287 287 286 286 285 285 286 287
257 258 259 261 261 262 264 266 267 269 271 272 274 274 273 273 273 274 274 273 272 270 268 267 267 268 269 272 274 277 280 281 283 285 287 288 289 288 288 288 288 289 289
258 258 257 259 261 262 263 265 266 267 269 271 272 273 274 274 274 275 276 276 275 274 272 270 270 270 271 273 275 277 280 282 283 285 287 289 290 290 290 290 290 291 292
257 258 258 258 261 262 264 264 266 266 267 269 271 272 274 274 275 276 277 278 278 277 275 274 273 273 274 275 277 278 280 282 284 285 287 289 291 291 292 292 293 293 294
257 258 259 259 260 262 263 264 265 265 266 268 270 271 273 275 276 277 277 279 280 279 278 277 276 276 276 277 278 279 281 283 285 286 288 290 291 292 293 293 294 294 294
257 258 259 259 260 261 262 263 264 265 266 267 269 271 272 275 276 278 279 279 280 280 280 280 279 278 278 279 280 280 282 284 286 287 289 290 292 292 292 293 294 294 295
257 258 258 259 259 260 262 262 264 265 265 266 268 269 271 274 276 278 280 281 281 280 280 281 281 280 280 280 281 282 284 286 287 288 289 291 292 293 293 294 294 295 295
259 259 259 259 259 259 260 261 262 263 264 265 267 268 271 273 275 278 279 281 281 281 281 282 281 281 281 281 281 283 285 287 288 289 290 292 293 293 294 295 296 296 296
261 260 259 259 258 257 258 259 259 260 262 264 266 267 270 272 275 277 279 280 281 281 282 282 282 283 283 282 283 284 285 287 289 291 292 293 294 295 296 297 297 297 297
260 259 258 257 257 255 255 255 257 259 261 263 265 267 269 271 273 276 279 281 282 282 282 282 283 284 284 284 285 286 286 288 289 290 292 294 295 297 298 298 299 299 299
261 260 258 256 255 254 253 254 255 256 258 260 262 265 267 270 273 275 278 280 281 282 283 283 284 285 286 287 288 288 289 291 292 293 294 295 296 297 298 299 299 299 299
261 260 258 256 254 253 252 252 252 253 254 257 260 262 265 268 271 274 276 279 281 283 284 284 284 286 287 288 289 289 291 293 294 295 296 297 298 299 299 300 300 299 299
260 259 257 256 254 252 251 250 250 251 252 255 257 260 263 266 269 273 276 279 281 283 284 285 286 287 288 289 290 292 293 294 295 296 297 298 299 300 301 301 300 300 300
Height
5851 5852 5853 5854 5854 5855 5856 5857 5858 5859 5860 5860 5861 5861 5861 5861 5861 5861 5861 5861 5861 5862 5862 5862 5862 5862 5862 5862 5862 5862 5862 5862 5862 5862 5861 5861 5861 5860 5860 5860 5861 5860 5860
5848 5849 5850 5851 5851 5852 5853 5854 5855 5856 5857 5857 5858 5858 5858 5858 5858 5858 5858 5859 5859 5859 5859 5859 5859 5860 5860 5860 5859 5859 5859 5859 5859 5859 5858 5858 5858 5857 5857 5857 5857 5857 5857
5845 5846 5847 5848 5848 5849 5850 5851 5851 5852 5853 5854 5855 5855 5855 5855 5855 5855 5856 5856 5856 5856 5856 5857 5857 5857 5857 5857 5856 5856 5856 5856 5856 5855 5855 5855 5854 5854 5854 5854 5854 5853 5853
5842 5843 5844 5845 5845 5846 5847 5847 5848 5849 5850 5851 5851 5851 5852 5852 5852 5852 5852 5853 5853 5853 5853 5854 5854 5854 5854 5853 5853 5853 5852 5852 5852 5852 5852 5852 5851 5850 5850 5850 5849 5849 5849
5838 5840 5840 5841 5842 5843 5843 5844 5844 5845 5846 5847 5848 5848 5848 5848 5848 5848 5849 5849 5849 5850 5850 5850 5850 5850 5850 5850 5850 5849 5849 5849 5848 5848 5848 5848 5847 5847 5846 5846 5845 5845 5844
5835 5836 5837 5838 5838 5839 5840 5840 5841 5842 5842 5843 5844 5844 5844 5845 5845 5845 5845 5845 5846 5846 5846 5847 5847 5847 5847 5847 5846 5846 5845 5845 5844 5844 5844 5844 5843 5843 5842 5842 5841 5840 5840
5831 5832 5833 5833 5834 5835 5836 5836 5837 5838 5838 5839 5840 5840 5840 5841 5841 5841 5841 5842 5842 5842 5843 5843 5843 5843 5843 5843 5842 5842 5841 5841 5841 5840 5840 5840 5839 5839 5838 5837 5836 5836 5835
5827 5828 5828 5829 5830 5831 5832 5832 5833 5833 5834 5835 5835 5836 5836 5837 5837 5837 5838 5838 5838 5839 5839 5839 5839 5839 5839 5839 5839 5838 5838 5837 5837 5837 5836 5835 5835 5834 5833 5833 5832 5831 5830
5822 5823 5824 5825 5826 5827 5828 5828 5829 5829 5830 5830 5831 5832 5832 5833 5833 5833 5834 5834 5834 5835 5835 5835 5835 5835 5835 5835 5835 5834 5834 5834 5833 5833 5832 5831 5831 5830 5829 5828 5827 5826 5825
5817 5819 5820 5821 5822 5823 5824 5824 5825 5826 5826 5826 5827 5827 5828 5828 5829 5829 5829 5830 5830 5831 5831 5831 5831 5832 5831 5831 5831 5830 5830 5829 5829 5829 5827 5826 5826 5825 5823 5822 5821 5821 5820
5812 5814 5815 5817 5818 5819 5820 5821 5821 5822 5822 5822 5823 5823 5824 5824 5825 5825 5825 5826 5826 5826 5827 5827 5827 5827 5827 5827 5827 5826 5825 5825 5825 5824 5822 5822 5821 5819 5818 5817 5816 5815 5814
5807 5809 5811 5812 5814 5815 5816 5816 5817 5817 5818 5818 5819 5819 5820 5820 5820 5820 5821 5821 5822 5822 5822 5823 5823 5823 5823 5822 5822 5821 5821 5820 5820 5819 5817 5816 5815 5814 5812 5811 5810 5809 5808
5801 5803 5805 5807 5808 5810 5811 5812 5812 5813 5814 5814 5814 5815 5815 5816 5816 5816 5816 5816 5817 5817 5817 5818 5818 5818 5818 5818 5817 5816 5815 5815 5814 5813 5811 5810 5809 5808 5806 5805 5804 5803 5802
5796 5797 5799 5801 5802 5804 5805 5806 5807 5808 5809 5809 5810 5810 5811 5811 5811 5811 5811 5812 5812 5812 5812 5812 5812 5812 5812 5812 5811 5811 5810 5809 5808 5807 5805 5804 5803 5801 5800 5798 5797 5796 5794
5790 5792 5793 5794 5796 5797 5799 5800 5801 5803 5803 5804 5804 5805 5805 5806 5806 5806 5806 5806 5807 5807 5807 5807 5807 5806 5806 5806 5805 5804 5803 5802 5802 5801 5799 5797 5796 5794 5793 5791 5789 5788 5786
5784 5786 5787 5788 5789 5791 5793 5794 5795 5796 5797 5798 5799 5799 5799 5800 5800 5800 5801 5801 5801 5801 5801 5801 5800 5800 5800 5799 5799 5798 5796 5795 5794 5794 5792 5790 5788 5786 5785 5783 5781 5779 5777
5777 5779 5780 5782 5783 5785 5786 5788 5789 5790 5791 5792 5793 5793 5793 5794 5794 5795 5795 5795 5795 5795 5794 5794 5794 5794 5793 5792 5792 5790 5789 5788 5787 5786 5785 5783 5780 5778 5776 5774 5772 5770 5768
5771 5772 5773 5775 5777 5778 5779 5781 5782 5784 5785 5786 5787 5787 5788 5788 5788 5788 5789 5789 5789 5788 5788 5788 5787 5787 5786 5785 5784 5783 5782 5780 5779 5778 5776 5774 5772 5770 5768 5765 5763 5760 5758
5764 5765 5766 5768 5770 5771 5772 5774 5775 5777 5778 5779 5781 5781 5782 5782 5782 5782 5782 5782 5782 5782 5781 5781 5780 5779 5778 5778 5777 5776 5774 5773 5771 5769 5768 5765 5763 5761 5759 5756 5753 5750 5747
5756 5757 5759 5760 5763 5764 5765 5766 5768 5770 5771 5772 5773 5775 5775 5776 5776 5776 5775 5775 5775 5775 5774 5773 5772 5772 5771 5770 5769 5768 5766 5765 5763 5760 5758 5756 5754 5751 5748 5746 5743 5739 5736
5748 5749 5750 5752 5755 5756 5757 5759 5761 5762 5764 5765 5766 5767 5768 5769 5769 5769 5768 5768 5768 5767 5767 5766 5765 5764 5763 5762 5761 5759 5758 5756 5754 5751 5749 5746 5744 5741 5737 5734 5731 5727 5724
5739 5740 5741 5743 5745 5747 5749 5751 5752 5753 5755 5757 5759 5760 5761 5762 5762 5761 5761 5761 5760 5760 5759 5758 5757 5756 5754 5753 5752 5750 5749 5748 5745 5742 5739 5735 5732 5729 5726 5722 5718 5714 5710
5728 5730 5732 5734 5735 5737 5739 5741 5742 5745 5748 5749 5751 5753 5754 5754 5754 5754 5754 5753 5753 5752 5751 5750 5749 5748 5746 5744 5742 5741 5739 5737 5736 5733 5729 5725 5721 5717 5713 5708 5704 5699 5695
5717 5719 5721 5723 5724 5726 5729 5731 5734 5737 5739 5741 5743 5744 5746 5747 5747 5747 5746 5746 5745 5744 5743 5742 5741 5739 5737 5735 5733 5731 5728 5726 5723 5722 5719 5714 5710 5706 5701 5696 5690 5685 5679
5705 5706 5708 5710 5713 5715 5718 5722 5725 5727 5730 5732 5734 5736 5738 5739 5739 5739 5739 5738 5737 5736 5735 5734 5732 5730 5728 5726 5724 5721 5718 5715 5712 5709 5707 5703 5698 5693 5688 5682 5677 5671 5665
5690 5692 5694 5697 5700 5703 5707 5711 5714 5718 5721 5723 5726 5728 5729 5731 5731 5732 5731 5730 5729 5728 5727 5725 5723 5721 5719 5716 5714 5711 5708 5704 5701 5697 5694 5691 5687 5681 5675 5668 5662 5656 5650